Location: Gwatt
(46.7204°N, 7.6223°E)
Time: 01:39:31
(UTC+00:00)

Transit 2A - Pass Details

Date: 24 January 2021
Orbit: 601 x 958 km, 66.7° (Epoch: 07 March)

Event Time Altitude Azimuth Distance (km) Brightness Sun altitude
Rises 05:53:44 0° 273° (W) 3,385 - -11.8°
Reaches altitude 10° 05:57:30 10° 298° (WNW) 2,370 - -11.2°
Exits shadow 05:58:32 12° 308° (NW) 2,181 7.8 -11.0°
Maximum altitude 06:00:23 14° 330° (NNW) 2,016 7.8 -10.7°
Drops below altitude 10° 06:03:09 10° 3° (N) 2,244 8.3 -10.3°
Sets 06:06:33 0° 28° (NNE) 3,088 9.3 -9.7°
